Time,TemperatureF,DewpointF,PressureIn,WindDirection,WindDirectionDegrees,WindSpeedMPH,WindSpeedGustMPH,Humidity,HourlyPrecipIn,Conditions,Clouds,dailyrainin,SoftwareType,DateUTC
2013-04-11 00:03:00,76.0,76.0,29.99,ESE,123,7.0,-999.0,100,-99.99,,,-99.99,,2013-04-11 04:03:00,
2013-04-11 00:13:00,76.0,76.0,30.00,ESE,112,0.0,-999.0,100,-99.99,,,-99.99,,2013-04-11 04:13:00,
2013-04-11 00:22:00,76.0,76.0,30.00,ESE,112,0.0,-999.0,100,-99.99,,,-99.99,,2013-04-11 04:22:00,
2013-04-11 00:33:00,76.0,76.0,30.00,ESE,112,0.0,-999.0,100,-99.99,,,-99.99,,2013-04-11 04:33:00,
2013-04-11 00:43:00,76.0,76.0,30.00,ESE,112,0.0,-999.0,100,-99.99,,,-99.99,,2013-04-11 04:43:00,
2013-04-11 00:52:00,76.0,76.0,30.00,ESE,112,2.0,-999.0,100,-99.99,,,-99.99,,2013-04-11 04:52:00,
2013-04-11 01:03:00,76.0,76.0,29.99,ESE,104,0.0,-999.0,100,-99.99,,,-99.99,,2013-04-11 05:03:00,
2013-04-11 01:13:00,76.0,76.0,29.99,ESE,104,0.0,-999.0,100,-99.99,,,-99.99,,2013-04-11 05:13:00,
2013-04-11 01:22:00,76.0,76.0,29.99,ESE,104,0.0,-999.0,100,-99.99,,,-99.99,,2013-04-11 05:22:00,
2013-04-11 01:32:00,76.0,76.0,29.98,ESE,113,0.0,-999.0,100,-99.99,,,-99.99,,2013-04-11 05:32:00,
2013-04-11 01:42:00,76.0,76.0,29.98,ESE,113,0.0,-999.0,100,-99.99,,,-99.99,,2013-04-11 05:42:00,
2013-04-11 01:52:00,76.0,76.0,29.98,ESE,110,0.0,-999.0,100,-99.99,,,-99.99,,2013-04-11 05:52:00,
2013-04-11 02:02:00,76.0,76.0,29.97,East,99,3.0,-999.0,100,-99.99,,,-99.99,,2013-04-11 06:02:00,
2013-04-11 02:12:00,76.0,76.0,29.97,East,99,3.0,-999.0,100,-99.99,,,-99.99,,2013-04-11 06:12:00,
2013-04-11 02:22:00,76.0,76.0,29.96,SE,135,4.0,-999.0,100,-99.99,,,-99.99,,2013-04-11 06:22:00,
2013-04-11 02:32:00,76.0,76.0,29.96,ESE,114,0.0,-999.0,100,-99.99,,,-99.99,,2013-04-11 06:32:00,
2013-04-11 02:42:00,76.0,76.0,29.96,ESE,114,0.0,-999.0,100,-99.99,,,-99.99,,2013-04-11 06:42:00,
2013-04-11 02:52:00,76.0,76.0,29.96,ESE,117,4.0,-999.0,100,-99.99,,,-99.99,,2013-04-11 06:52:00,
2013-04-11 03:02:00,76.0,76.0,29.95,ESE,102,9.0,-999.0,100,-99.99,,,-99.99,,2013-04-11 07:02:00,
2013-04-11 03:12:00,76.0,76.0,29.95,ESE,102,9.0,-999.0,100,-99.99,,,-99.99,,2013-04-11 07:12:00,
2013-04-11 03:21:00,75.0,75.0,29.94,ESE,115,2.0,-999.0,100,-99.99,,,-99.99,,2013-04-11 07:21:00,
2013-04-11 03:22:00,75.0,75.0,29.95,ESE,113,3.0,-999.0,100,-99.99,,,-99.99,,2013-04-11 07:22:00,
2013-04-11 03:32:00,75.0,75.0,29.94,ESE,102,2.0,-999.0,100,-99.99,,,-99.99,,2013-04-11 07:32:00,
2013-04-11 03:42:00,75.0,75.0,29.94,ESE,102,2.0,-999.0,100,-99.99,,,-99.99,,2013-04-11 07:42:00,
2013-04-11 03:52:00,75.0,75.0,29.94,ESE,115,2.0,-999.0,100,-99.99,,,-99.99,,2013-04-11 07:52:00,
2013-04-11 04:03:00,75.0,75.0,29.94,ESE,115,2.0,-999.0,100,-99.99,,,-99.99,,2013-04-11 08:03:00,
2013-04-11 04:12:00,75.0,75.0,29.94,ESE,115,2.0,-999.0,100,-99.99,,,-99.99,,2013-04-11 08:12:00,
2013-04-11 04:52:00,75.0,72.0,29.93,ESE,108,1.0,-999.0,89,-99.99,,,-99.99,,2013-04-11 08:52:00,
2013-04-11 05:02:00,75.0,71.0,29.93,East,96,4.0,-999.0,87,-99.99,,,-99.99,,2013-04-11 09:02:00,
2013-04-11 05:12:00,75.0,67.0,29.93,SE,130,4.0,-999.0,76,-99.99,,,-99.99,,2013-04-11 09:12:00,
2013-04-11 05:22:00,75.0,67.0,29.93,SE,130,4.0,-999.0,76,-99.99,,,-99.99,,2013-04-11 09:22:00,
2013-04-11 05:33:00,75.0,69.0,29.93,SE,128,1.0,-999.0,81,-99.99,,,-99.99,,2013-04-11 09:33:00,
2013-04-11 05:43:00,75.0,69.0,29.93,SE,128,1.0,-999.0,81,-99.99,,,-99.99,,2013-04-11 09:43:00,
2013-04-11 05:53:00,75.0,66.0,29.93,ESE,107,2.0,-999.0,74,-99.99,,,-99.99,,2013-04-11 09:53:00,
2013-04-11 06:02:00,76.0,68.0,29.93,ESE,115,5.0,-999.0,77,-99.99,,,-99.99,,2013-04-11 10:02:00,
2013-04-11 06:12:00,76.0,72.0,29.93,East,101,8.0,-999.0,86,-99.99,,,-99.99,,2013-04-11 10:12:00,
2013-04-11 06:23:00,76.0,72.0,29.93,East,101,8.0,-999.0,86,-99.99,,,-99.99,,2013-04-11 10:23:00,
2013-04-11 06:32:00,75.0,72.0,29.94,ESE,118,5.0,-999.0,91,-99.99,,,-99.99,,2013-04-11 10:32:00,
2013-04-11 06:42:00,75.0,72.0,29.94,ESE,118,5.0,-999.0,91,-99.99,,,-99.99,,2013-04-11 10:42:00,
2013-04-11 06:52:00,75.0,73.0,29.94,SE,132,6.0,-999.0,94,-99.99,,,-99.99,,2013-04-11 10:52:00,
2013-04-11 07:03:00,75.0,73.0,29.94,SE,132,6.0,-999.0,94,-99.99,,,-99.99,,2013-04-11 11:03:00,
2013-04-11 07:23:00,75.0,75.0,29.95,SE,128,4.0,-999.0,99,-99.99,,,-99.99,,2013-04-11 11:23:00,
2013-04-11 07:32:00,76.0,76.0,29.95,ESE,106,9.0,-999.0,99,-99.99,,,-99.99,,2013-04-11 11:32:00,
2013-04-11 07:43:00,76.0,76.0,29.96,ESE,105,3.0,-999.0,100,-99.99,,,-99.99,,2013-04-11 11:43:00,
2013-04-11 07:52:00,76.0,76.0,29.96,ESE,105,3.0,-999.0,100,-99.99,,,-99.99,,2013-04-11 11:52:00,
2013-04-11 08:02:00,76.0,76.0,29.97,ESE,110,3.0,-999.0,100,-99.99,,,-99.99,,2013-04-11 12:02:00,
2013-04-11 08:13:00,76.0,76.0,29.97,East,90,0.0,-999.0,100,-99.99,,,-99.99,,2013-04-11 12:13:00,
2013-04-11 08:22:00,76.0,76.0,29.97,East,90,0.0,-999.0,100,-99.99,,,-99.99,,2013-04-11 12:22:00,
2013-04-11 08:32:00,76.0,76.0,29.97,ESE,102,7.0,-999.0,100,-99.99,,,-99.99,,2013-04-11 12:32:00,
2013-04-11 08:42:00,76.0,76.0,29.97,ESE,102,7.0,-999.0,100,-99.99,,,-99.99,,2013-04-11 12:42:00,
2013-04-11 08:52:00,76.0,76.0,29.97,ESE,102,7.0,-999.0,100,-99.99,,,-99.99,,2013-04-11 12:52:00,
2013-04-11 09:02:00,77.0,77.0,29.98,ESE,110,2.0,-999.0,100,-99.99,,,-99.99,,2013-04-11 13:02:00,
2013-04-11 09:13:00,78.0,78.0,29.98,SSE,155,6.0,-999.0,100,-99.99,,,-99.99,,2013-04-11 13:13:00,
2013-04-11 09:23:00,78.0,78.0,29.98,SSE,155,6.0,-999.0,100,-99.99,,,-99.99,,2013-04-11 13:23:00,
2013-04-11 09:32:00,78.0,78.0,29.98,SE,136,5.0,-999.0,100,-99.99,,,-99.99,,2013-04-11 13:32:00,
2013-04-11 09:43:00,78.0,78.0,29.98,SE,136,5.0,-999.0,100,-99.99,,,-99.99,,2013-04-11 13:43:00,
2013-04-11 09:54:00,78.0,78.0,29.98,East,100,9.0,-999.0,100,-99.99,,,-99.99,,2013-04-11 13:54:00,
2013-04-11 10:02:00,78.0,78.0,29.99,ESE,109,5.0,-999.0,100,-99.99,,,-99.99,,2013-04-11 14:02:00,
2013-04-11 10:12:00,79.0,79.0,29.99,ESE,105,9.0,-999.0,100,-99.99,,,-99.99,,2013-04-11 14:12:00,
2013-04-11 10:22:00,79.0,79.0,29.99,ESE,105,9.0,-999.0,100,-99.99,,,-99.99,,2013-04-11 14:22:00,
2013-04-11 10:32:00,79.0,79.0,29.99,ESE,102,9.0,-999.0,100,-99.99,,,-99.99,,2013-04-11 14:32:00,
2013-04-11 10:42:00,79.0,79.0,29.99,ESE,102,9.0,-999.0,100,-99.99,,,-99.99,,2013-04-11 14:42:00,
2013-04-11 10:52:00,80.0,80.0,30.00,East,99,4.0,-999.0,100,-99.99,,,-99.99,,2013-04-11 14:52:00,
2013-04-11 11:02:00,80.0,80.0,30.00,ESE,111,6.0,-999.0,100,-99.99,,,-99.99,,2013-04-11 15:02:00,
2013-04-11 11:12:00,82.0,82.0,30.00,ESE,102,10.0,-999.0,100,-99.99,,,-99.99,,2013-04-11 15:12:00,
2013-04-11 11:22:00,82.0,82.0,30.00,ESE,102,10.0,-999.0,100,-99.99,,,-99.99,,2013-04-11 15:22:00,
2013-04-11 11:32:00,82.0,82.0,30.00,SE,136,7.0,-999.0,100,-99.99,,,-99.99,,2013-04-11 15:32:00,
2013-04-11 11:43:00,82.0,82.0,30.00,SE,137,2.0,-999.0,100,-99.99,,,-99.99,,2013-04-11 15:43:00,
2013-04-11 11:53:00,82.0,82.0,30.00,SE,137,2.0,-999.0,100,-99.99,,,-99.99,,2013-04-11 15:53:00,
2013-04-11 12:02:00,82.0,82.0,29.99,SE,135,8.0,-999.0,100,-99.99,,,-99.99,,2013-04-11 16:02:00,
2013-04-11 12:13:00,82.0,82.0,29.99,SE,135,8.0,-999.0,100,-99.99,,,-99.99,,2013-04-11 16:13:00,
2013-04-11 12:23:00,83.0,83.0,29.98,East,95,3.0,-999.0,100,-99.99,,,-99.99,,2013-04-11 16:23:00,
2013-04-11 12:32:00,84.0,84.0,29.98,SE,126,1.0,-999.0,100,-99.99,,,-99.99,,2013-04-11 16:32:00,
2013-04-11 12:42:00,83.0,83.0,29.98,East,101,5.0,-999.0,100,-99.99,,,-99.99,,2013-04-11 16:42:00,
2013-04-11 12:53:00,83.0,83.0,29.98,East,101,5.0,-999.0,100,-99.99,,,-99.99,,2013-04-11 16:53:00,
2013-04-11 13:02:00,84.0,84.0,29.98,SE,145,8.0,-999.0,100,-99.99,,,-99.99,,2013-04-11 17:02:00,
2013-04-11 13:13:00,84.0,84.0,29.98,SE,145,8.0,-999.0,100,-99.99,,,-99.99,,2013-04-11 17:13:00,
2013-04-11 13:23:00,84.0,84.0,29.98,SE,135,4.0,-999.0,100,-99.99,,,-99.99,,2013-04-11 17:23:00,
2013-04-11 13:33:00,85.0,85.0,29.97,SSE,151,9.0,-999.0,100,-99.99,,,-99.99,,2013-04-11 17:33:00,
2013-04-11 13:43:00,85.0,85.0,29.97,SSE,151,9.0,-999.0,100,-99.99,,,-99.99,,2013-04-11 17:43:00,
2013-04-11 13:52:00,85.0,85.0,29.97,ESE,118,10.0,-999.0,100,-99.99,,,-99.99,,2013-04-11 17:52:00,
2013-04-11 14:03:00,85.0,85.0,29.96,ESE,109,11.0,-999.0,100,-99.99,,,-99.99,,2013-04-11 18:03:00,
2013-04-11 14:13:00,85.0,85.0,29.96,ESE,109,11.0,-999.0,100,-99.99,,,-99.99,,2013-04-11 18:13:00,
2013-04-11 14:23:00,85.0,85.0,29.96,ESE,123,5.0,-999.0,100,-99.99,,,-99.99,,2013-04-11 18:23:00,
2013-04-11 14:33:00,84.0,84.0,29.95,East,97,8.0,-999.0,100,-99.99,,,-99.99,,2013-04-11 18:33:00,
2013-04-11 14:43:00,84.0,84.0,29.95,East,97,8.0,-999.0,100,-99.99,,,-99.99,,2013-04-11 18:43:00,
2013-04-11 14:52:00,85.0,85.0,29.95,ESE,120,8.0,-999.0,100,-99.99,,,-99.99,,2013-04-11 18:52:00,
2013-04-11 15:04:00,85.0,85.0,29.95,ESE,120,8.0,-999.0,100,-99.99,,,-99.99,,2013-04-11 19:04:00,
2013-04-11 15:14:00,85.0,85.0,29.95,ESE,120,8.0,-999.0,100,-99.99,,,-99.99,,2013-04-11 19:14:00,
2013-04-11 15:22:00,85.0,85.0,29.95,ESE,120,8.0,-999.0,100,-99.99,,,-99.99,,2013-04-11 19:22:00,
2013-04-11 15:32:00,85.0,85.0,29.93,SE,144,4.0,-999.0,100,-99.99,,,-99.99,,2013-04-11 19:32:00,
2013-04-11 15:43:00,85.0,85.0,29.93,SE,144,4.0,-999.0,100,-99.99,,,-99.99,,2013-04-11 19:43:00,
2013-04-11 15:53:00,84.0,84.0,29.92,ESE,117,5.0,-999.0,100,-99.99,,,-99.99,,2013-04-11 19:53:00,
2013-04-11 16:03:00,84.0,84.0,29.92,SSE,149,4.0,-999.0,100,-99.99,,,-99.99,,2013-04-11 20:03:00,
2013-04-11 16:13:00,84.0,84.0,29.92,SSE,149,4.0,-999.0,100,-99.99,,,-99.99,,2013-04-11 20:13:00,
2013-04-11 16:22:00,86.0,86.0,29.91,SE,129,5.0,-999.0,100,-99.99,,,-99.99,,2013-04-11 20:22:00,
2013-04-11 16:33:00,84.0,84.0,29.91,SSE,150,5.0,-999.0,100,-99.99,,,-99.99,,2013-04-11 20:33:00,
2013-04-11 16:40:00,84.0,84.0,29.90,SE,134,4.0,-999.0,100,-99.99,,,-99.99,,2013-04-11 20:40:00,
2013-04-11 16:43:00,84.0,84.0,29.91,SSE,150,5.0,-999.0,100,-99.99,,,-99.99,,2013-04-11 20:43:00,
2013-04-11 16:53:00,84.0,84.0,29.91,SSE,150,5.0,-999.0,100,-99.99,,,-99.99,,2013-04-11 20:53:00,
2013-04-11 17:03:00,84.0,84.0,29.90,SE,134,4.0,-999.0,100,-99.99,,,-99.99,,2013-04-11 21:03:00,
2013-04-11 17:12:00,84.0,84.0,29.90,SE,134,4.0,-999.0,100,-99.99,,,-99.99,,2013-04-11 21:12:00,
2013-04-11 17:23:00,84.0,84.0,29.90,SE,134,4.0,-999.0,100,-99.99,,,-99.99,,2013-04-11 21:23:00,
2013-04-11 17:33:00,84.0,84.0,29.90,SE,134,4.0,-999.0,100,-99.99,,,-99.99,,2013-04-11 21:33:00,
2013-04-11 17:54:00,82.0,82.0,29.89,SSE,166,9.0,-999.0,100,-99.99,,,-99.99,,2013-04-11 21:54:00,
2013-04-11 18:03:00,82.0,82.0,29.90,ESE,112,0.0,-999.0,100,-99.99,,,-99.99,,2013-04-11 22:03:00,
2013-04-11 18:13:00,82.0,82.0,29.90,ESE,112,0.0,-999.0,100,-99.99,,,-99.99,,2013-04-11 22:13:00,
2013-04-11 18:23:00,82.0,82.0,29.90,ESE,111,6.0,-999.0,100,-99.99,,,-99.99,,2013-04-11 22:23:00,
2013-04-11 18:33:00,81.0,81.0,29.89,ESE,114,1.0,-999.0,100,-99.99,,,-99.99,,2013-04-11 22:33:00,
2013-04-11 18:44:00,81.0,81.0,29.89,ESE,114,1.0,-999.0,100,-99.99,,,-99.99,,2013-04-11 22:44:00,
2013-04-11 18:53:00,81.0,81.0,29.89,SE,126,7.0,-999.0,100,-99.99,,,-99.99,,2013-04-11 22:53:00,
2013-04-11 19:03:00,80.0,80.0,29.88,ESE,107,7.0,-999.0,100,-99.99,,,-99.99,,2013-04-11 23:03:00,
2013-04-11 19:13:00,80.0,80.0,29.88,ESE,107,7.0,-999.0,100,-99.99,,,-99.99,,2013-04-11 23:13:00,
2013-04-11 19:23:00,80.0,80.0,29.88,ESE,104,8.0,-999.0,100,-99.99,,,-99.99,,2013-04-11 23:23:00,
2013-04-11 19:32:00,79.0,79.0,29.89,ESE,115,11.0,-999.0,100,-99.99,,,-99.99,,2013-04-11 23:32:00,
2013-04-11 19:42:00,79.0,79.0,29.89,ESE,115,11.0,-999.0,100,-99.99,,,-99.99,,2013-04-11 23:42:00,
2013-04-11 19:53:00,79.0,79.0,29.88,SE,126,2.0,-999.0,100,-99.99,,,-99.99,,2013-04-11 23:53:00,
2013-04-11 20:02:00,78.0,78.0,29.88,ESE,118,11.0,-999.0,100,-99.99,,,-99.99,,2013-04-12 00:02:00,
2013-04-11 20:12:00,78.0,78.0,29.88,ESE,118,11.0,-999.0,100,-99.99,,,-99.99,,2013-04-12 00:12:00,
2013-04-11 20:22:00,78.0,78.0,29.88,ESE,105,6.0,-999.0,100,-99.99,,,-99.99,,2013-04-12 00:22:00,
2013-04-11 20:32:00,78.0,78.0,29.88,East,100,2.0,-999.0,100,-99.99,,,-99.99,,2013-04-12 00:32:00,
2013-04-11 20:42:00,78.0,78.0,29.88,East,100,2.0,-999.0,100,-99.99,,,-99.99,,2013-04-12 00:42:00,
2013-04-11 20:53:00,78.0,78.0,29.88,SE,124,2.0,-999.0,100,-99.99,,,-99.99,,2013-04-12 00:53:00,
2013-04-11 21:02:00,78.0,78.0,29.88,SE,128,10.0,-999.0,100,-99.99,,,-99.99,,2013-04-12 01:02:00,
2013-04-11 21:12:00,78.0,78.0,29.88,SE,128,10.0,-999.0,100,-99.99,,,-99.99,,2013-04-12 01:12:00,
2013-04-11 21:22:00,77.0,77.0,29.89,SE,125,0.0,-999.0,100,-99.99,,,-99.99,,2013-04-12 01:22:00,
2013-04-11 21:32:00,77.0,74.0,29.89,ESE,118,6.0,-999.0,90,-99.99,,,-99.99,,2013-04-12 01:32:00,
2013-04-11 21:42:00,77.0,74.0,29.89,ESE,118,6.0,-999.0,90,-99.99,,,-99.99,,2013-04-12 01:42:00,
2013-04-11 21:52:00,77.0,71.0,29.89,ESE,122,0.0,-999.0,82,-99.99,,,-99.99,,2013-04-12 01:52:00,
2013-04-11 22:03:00,77.0,63.0,29.89,SE,126,0.0,-999.0,62,-99.99,,,-99.99,,2013-04-12 02:03:00,
2013-04-11 22:12:00,77.0,63.0,29.89,SE,126,0.0,-999.0,62,-99.99,,,-99.99,,2013-04-12 02:12:00,
2013-04-11 22:22:00,77.0,63.0,29.91,SE,124,5.0,-999.0,61,-99.99,,,-99.99,,2013-04-12 02:22:00,
2013-04-11 22:32:00,77.0,63.0,29.94,ESE,117,6.0,-999.0,61,-99.99,,,-99.99,,2013-04-12 02:32:00,
2013-04-11 22:42:00,77.0,63.0,29.94,ESE,117,6.0,-999.0,61,-99.99,,,-99.99,,2013-04-12 02:42:00,
2013-04-11 22:52:00,77.0,63.0,29.91,ESE,118,4.0,-999.0,61,-99.99,,,-99.99,,2013-04-12 02:52:00,
2013-04-11 23:02:00,77.0,63.0,29.89,SE,138,10.0,-999.0,61,-99.99,,,-99.99,,2013-04-12 03:02:00,
2013-04-11 23:12:00,77.0,63.0,29.89,SE,138,10.0,-999.0,61,-99.99,,,-99.99,,2013-04-12 03:12:00,
2013-04-11 23:22:00,77.0,63.0,29.89,ESE,107,2.0,-999.0,61,-99.99,,,-99.99,,2013-04-12 03:22:00,
2013-04-11 23:33:00,77.0,63.0,29.88,ESE,104,6.0,-999.0,62,-99.99,,,-99.99,,2013-04-12 03:33:00,
2013-04-11 23:43:00,77.0,63.0,29.88,ESE,104,6.0,-999.0,62,-99.99,,,-99.99,,2013-04-12 03:43:00,
2013-04-11 23:52:00,77.0,63.0,29.90,SE,126,6.0,-999.0,62,-99.99,,,-99.99,,2013-04-12 03:52:00,